TimeCST,TemperatureF,Dew PointF,Humidity,Sea Level PressureIn,VisibilityMPH,Wind Direction,Wind SpeedMPH,Gust SpeedMPH,PrecipitationIn,Events,Conditions,WindDirDegrees,DateUTC
12:53 AM,30.9,28.9,92,30.19,10.0,Calm,Calm,-,N/A,,Clear,0,2012-11-29 06:53:00
1:53 AM,36.0,33.1,89,30.17,10.0,South,4.6,-,N/A,,Clear,190,2012-11-29 07:53:00
2:53 AM,35.1,32.0,89,30.17,10.0,South,3.5,-,N/A,,Clear,180,2012-11-29 08:53:00
3:53 AM,37.9,33.1,83,30.15,10.0,South,5.8,-,N/A,,Clear,180,2012-11-29 09:53:00
4:53 AM,37.9,33.1,83,30.15,10.0,South,5.8,-,N/A,,Clear,180,2012-11-29 10:53:00
5:53 AM,37.9,33.1,83,30.15,10.0,South,5.8,-,N/A,,Clear,190,2012-11-29 11:53:00
6:53 AM,37.0,33.1,86,30.14,10.0,South,5.8,-,N/A,,Clear,180,2012-11-29 12:53:00
7:53 AM,39.9,34.0,79,30.14,10.0,South,6.9,-,N/A,,Clear,180,2012-11-29 13:53:00
8:53 AM,46.0,37.0,71,30.14,10.0,South,6.9,-,N/A,,Clear,170,2012-11-29 14:53:00
9:53 AM,53.1,37.9,57,30.12,10.0,South,11.5,23.0,N/A,,Clear,180,2012-11-29 15:53:00
10:53 AM,57.9,39.0,49,30.12,10.0,South,9.2,19.6,N/A,,Clear,180,2012-11-29 16:53:00
11:53 AM,63.0,41.0,45,30.09,10.0,South,13.8,21.9,N/A,,Clear,180,2012-11-29 17:53:00
12:53 PM,66.9,39.0,36,30.06,10.0,SSW,15.0,23.0,N/A,,Clear,200,2012-11-29 18:53:00
1:53 PM,70.0,33.1,26,30.03,10.0,SSW,15.0,28.8,N/A,,Clear,200,2012-11-29 19:53:00
2:53 PM,70.0,30.0,23,30.00,10.0,South,18.4,26.5,N/A,,Clear,170,2012-11-29 20:53:00
3:53 PM,68.0,28.0,22,29.99,10.0,South,13.8,21.9,N/A,,Clear,190,2012-11-29 21:53:00
4:53 PM,64.0,28.9,27,29.99,10.0,South,8.1,-,N/A,,Clear,180,2012-11-29 22:53:00
5:53 PM,59.0,30.9,35,30.01,10.0,South,8.1,-,N/A,,Clear,190,2012-11-29 23:53:00
6:53 PM,57.0,32.0,39,30.04,10.0,SSW,5.8,-,N/A,,Clear,200,2012-11-30 00:53:00
7:53 PM,52.0,33.1,49,30.06,10.0,South,3.5,-,N/A,,Clear,190,2012-11-30 01:53:00
8:53 PM,52.0,35.1,53,30.06,10.0,South,5.8,-,N/A,,Clear,190,2012-11-30 02:53:00
9:53 PM,53.1,36.0,52,30.06,10.0,South,4.6,-,N/A,,Clear,190,2012-11-30 03:53:00
10:53 PM,48.0,35.1,61,30.07,10.0,Calm,Calm,-,N/A,,Clear,0,2012-11-30 04:53:00
11:53 PM,42.1,35.1,76,30.08,10.0,Calm,Calm,-,N/A,,Clear,0,2012-11-30 05:53:00